Weather History for Fryeburg, ME

Change the Weather History Date:

Wednesday, January 1, 2014

  Actual Average Record
Temperature  
Mean Temperature 5 °F -  
Max Temperature 21 °F 30 °F 50 °F (2011)
Min Temperature -11 °F 10 °F -18 °F (1998)
Degree Days  
Heating Degree Days 60    
Moisture  
Dew Point -7 °F    
Average Humidity 64    
Maximum Humidity 83    
Minimum Humidity 40    
Precipitation  
Precipitation 0.00 in - - ()
Sea Level Pressure  
Sea Level Pressure 30.28 in    
Wind  
Wind Speed 2 mph (West)    
Max Wind Speed 10 mph    
Max Gust Speed 22 mph    
Visibility 10 miles    
Events Snow    
Averages and records for this station are not official NWS values.
T = Trace of Precipitation, MM = Missing Value Source: NWS Daily Summary

Daily Weather History Graph

Daily Weather History Graph

Search for Another Location

Airport:

Trip Planner

Search our weather history database for the weather conditions in past years. The results will help you decide how hot, cold, wet, or windy it might be!

Date:

Astronomy

Jan. 01, 2014 Rise Set
Actual Time 7:18 AM EST 4:16 PM EST
Civil Twilight 6:45 AM EST 4:49 PM EST
Nautical Twilight 6:09 AM EST 5:25 PM EST
Astronomical Twilight 5:34 AM EST 6:00 PM EST
Moon 7:03 AM EST (1/1) 5:00 PM EST (1/1)
Length of Visible Light 10h 03m
Length of Day
8h 57m
New Moon, 0% of the Moon is Illuminated
Jan 1
New Moon
Jan 7
First Quarter
Jan 15
Full
Jan 24
Last Quarter
Jan 30
New

Hourly Weather History & Observations

Time (EST) Temp. Windchill Dew Point Humidity Pressure Visibility Wind Dir Wind Speed Gust Speed Precip Events Conditions
12:54 AM -7.1 °F - -13.0 °F 75% 30.13 in 10.0 mi Calm Calm - N/A   Overcast
1:54 AM -9.0 °F - -14.1 °F 79% 30.15 in 10.0 mi Calm Calm - N/A   Mostly Cloudy
2:54 AM -11.0 °F - -17.0 °F 75% 30.18 in 10.0 mi Calm Calm - N/A   Overcast
3:54 AM -9.0 °F - -15.0 °F 75% 30.19 in 10.0 mi Calm Calm - N/A   Overcast
4:54 AM -11.9 °F - -17.0 °F 78% 30.21 in 10.0 mi Calm Calm - N/A   Mostly Cloudy
5:54 AM -11.9 °F - -18.0 °F 74% 30.23 in 10.0 mi Calm Calm - N/A   Overcast
6:54 AM -11.0 °F - -17.0 °F 75% 30.25 in 5.0 mi Calm Calm - 0.00 in Snow Light Snow
7:06 AM -11.9 °F - -18.0 °F 74% 30.21 in 10.0 mi Calm Calm - 0.00 in   Mostly Cloudy
7:54 AM -11.9 °F -21.5 °F -17.0 °F 78% 30.27 in 10.0 mi ESE 3.5 mph - 0.00 in   Partly Cloudy
8:46 AM -7.1 °F - -13.0 °F 75% 30.24 in 10.0 mi Calm Calm - N/A   Mostly Cloudy
8:54 AM -6.0 °F - -9.9 °F 83% 30.29 in 10.0 mi Calm Calm - N/A   Scattered Clouds
9:54 AM 1.0 °F - -4.0 °F 79% 30.30 in 10.0 mi Calm Calm - N/A   Partly Cloudy
10:54 AM 19.0 °F 11.1 °F 1.9 °F 47% 30.28 in 10.0 mi Variable 5.8 mph - N/A   Mostly Cloudy
11:54 AM 21.0 °F 9.9 °F -0.0 °F 40% 30.28 in 10.0 mi West 10.4 mph 21.9 mph N/A   Overcast
12:54 PM 19.9 °F 11.1 °F -0.0 °F 42% 30.28 in 10.0 mi West 6.9 mph 20.7 mph N/A   Overcast
1:54 PM 21.0 °F 12.4 °F -0.0 °F 40% 30.28 in 10.0 mi WNW 6.9 mph - N/A   Partly Cloudy
2:54 PM 19.0 °F 9.0 °F -0.9 °F 42% 30.30 in 10.0 mi West 8.1 mph - N/A   Clear
3:54 PM 17.1 °F 8.7 °F -2.0 °F 43% 30.32 in 10.0 mi West 5.8 mph - N/A   Clear
4:54 PM 15.1 °F 7.7 °F -0.9 °F 49% 30.33 in 10.0 mi Variable 4.6 mph - N/A   Clear
5:54 PM 12.9 °F 6.9 °F -2.0 °F 51% 30.34 in 10.0 mi WNW 3.5 mph - N/A   Clear
6:54 PM 3.0 °F - -2.0 °F 80% 30.36 in 10.0 mi Calm Calm - N/A   Clear
7:54 PM 5.0 °F -6.9 °F -2.9 °F 70% 30.36 in 10.0 mi NW 6.9 mph - N/A   Partly Cloudy
8:54 PM 5.0 °F -2.1 °F -2.9 °F 70% 30.37 in 10.0 mi NNW 3.5 mph - N/A   Clear
9:54 PM 10.0 °F -1.9 °F -2.9 °F 56% 30.38 in 10.0 mi WNW 8.1 mph - N/A   Overcast
10:54 PM 10.9 °F 1.4 °F -2.9 °F 54% 30.38 in 10.0 mi West 5.8 mph - N/A   Overcast
11:54 PM 10.0 °F 3.6 °F -2.9 °F 56% 30.38 in 10.0 mi SW 3.5 mph - N/A   Scattered Clouds